Terminal Aerodrome Forecast
Issued by NWS

Home | Current Version | Previous Version | Text Only | Print | Product List | Glossary On
Versions: 1 2 3 4 5 6 7 8 9 10 11 12 13 14 15 16 17 18 19 20 21 22 23 24 25 26 27 28 29
000
FTUS45 KSLC 272330
TAFENV
TAF
KENV 272330Z 2800/2824 VRB05KT P6SM SCT100 BKN200
     FM280300 33006KT P6SM SCT050 BKN080
     FM281800 29012G20KT P6SM FEW040 BKN070
      AMD LTD TO CLD VIS AND WIND=

USA.gov is the U.S. government's official web portal to all federal, state and local government web resources and services.